Wind_Speed
14 14 14 14 15 15 15 16 15 16 17 17 18 18 19 20 21 22 22 21 21 20 19 20 21 23 23 23 25 26 27 27 26 27 28 28 26 26 25 23 20 16
14 14 14 14 14 15 15 15 15 15 16 16 17 18 19 20 21 22 22 21 20 19 19 19 21 22 23 24 26 27 29 30 30 30 29 28 29 26 22 20 17 13
13 14 14 15 15 15 15 14 14 15 15 16 17 18 19 20 21 22 22 20 20 19 20 21 22 22 22 24 26 27 30 30 30 31 28 28 31 27 22 22 20 14
14 14 14 14 14 14 14 14 15 15 15 16 17 19 19 20 21 21 21 20 20 20 21 22 23 23 23 25 26 27 30 29 29 30 28 31 34 29 29 33 27 15
13 14 14 14 14 14 14 15 15 16 16 16 17 19 19 20 21 21 21 21 20 20 21 22 23 23 23 25 26 28 29 29 29 28 27 33 35 29 31 37 33 25
13 13 13 14 14 14 15 15 15 16 16 16 17 18 19 20 21 21 21 21 20 21 21 22 23 24 24 24 26 28 28 29 30 28 27 32 35 32 33 36 34 32
13 13 13 13 14 15 15 15 15 15 16 16 17 18 19 20 20 21 20 20 20 21 22 22 23 24 24 24 26 28 28 31 34 31 28 29 31 33 36 36 34 32
12 13 13 13 14 15 16 15 15 15 15 16 16 17 18 20 20 20 20 20 19 21 22 23 24 24 24 24 25 28 29 32 35 32 28 29 29 30 35 37 34 33
12 12 13 13 14 15 16 16 15 15 15 16 16 16 17 19 19 20 20 19 20 22 22 23 25 25 25 24 24 27 27 30 35 32 28 29 29 27 31 35 36 35
12 12 13 13 14 15 16 16 16 15 15 16 16 16 17 19 19 19 20 20 20 22 23 24 26 26 26 25 23 25 25 27 34 35 28 26 28 27 27 31 34 34
11 12 13 13 13 14 15 16 16 16 16 16 16 17 17 19 19 19 20 20 20 22 23 24 25 26 27 26 23 23 23 24 31 36 30 26 26 26 26 27 29 31
11 12 12 13 13 14 14 15 16 16 16 16 16 17 17 18 19 19 19 19 20 21 22 23 24 26 28 27 25 23 22 22 27 34 34 29 25 25 24 25 26 28
11 11 12 12 13 13 14 14 15 16 16 16 16 16 16 17 19 18 18 19 19 19 21 23 24 26 29 30 27 23 21 21 23 30 34 32 27 26 24 23 24 26
10 10 12 12 12 13 13 14 15 15 16 16 16 16 16 17 18 18 18 19 19 19 20 22 23 26 29 31 30 25 21 20 21 25 28 27 26 27 27 26 24 24
9 10 11 12 12 13 13 14 14 15 15 16 16 16 16 16 18 18 18 19 20 19 19 20 23 26 27 28 29 26 21 18 19 21 23 23 23 25 27 27 27 26
9 9 10 11 12 12 13 13 14 14 15 16 16 17 16 16 18 19 19 19 20 20 19 21 26 28 26 25 25 25 21 17 17 19 21 22 23 24 25 27 28 28
8 9 10 11 12 12 13 14 13 13 14 15 16 17 16 16 18 19 20 19 19 20 20 21 26 28 25 24 25 26 22 17 16 18 20 21 23 24 26 29 31 31
8 9 10 10 11 12 12 13 13 13 14 14 15 16 16 17 17 18 19 19 18 20 20 21 27 27 24 23 25 27 25 19 16 17 18 20 23 23 25 29 32 32
8 9 10 10 11 11 12 12 13 13 13 13 15 15 15 16 17 17 18 18 18 19 18 22 28 28 24 23 24 27 26 20 17 17 17 19 21 23 24 26 27 28
8 9 10 10 10 10 11 12 12 13 13 12 13 14 15 16 17 17 17 18 19 19 18 22 29 28 24 23 23 25 26 21 17 17 17 18 20 22 23 24 23 23
8 9 10 10 10 10 11 12 12 12 12 12 12 13 14 15 15 16 17 17 18 19 17 21 28 28 25 24 23 24 24 19 16 17 17 17 19 21 23 26 24 21
8 9 9 9 9 10 10 11 11 11 11 11 11 12 13 14 14 15 17 18 19 19 17 19 26 28 26 24 23 23 23 19 16 17 17 17 18 19 22 28 28 24
9 9 9 9 10 10 10 10 10 10 11 11 11 12 12 13 14 14 16 18 19 21 18 17 24 29 27 24 24 24 22 18 16 16 17 17 18 17 18 24 29 28
9 10 10 10 10 10 10 10 10 10 10 10 11 12 12 13 14 14 16 17 18 21 21 17 21 28 28 25 24 24 22 18 16 16 17 17 17 17 16 18 24 27
9 10 10 10 10 10 10 10 10 10 10 10 10 11 12 12 14 14 16 17 16 19 23 21 20 25 29 26 23 23 23 19 16 16 17 17 16 16 16 16 18 23
10 10 10 10 10 10 10 10 10 10 11 11 11 12 11 12 13 14 15 17 17 17 21 23 22 22 26 28 25 23 22 20 19 18 17 17 16 16 16 17 17 20
Wind_Direction
33 32 29 27 24 20 15 12 10 9 9 6 3 2 2 0 0 359 357 356 358 357 353 352 352 351 350 348 346 344 344 343 341 342 343 343 344 338 332 331 328 327
35 34 30 27 23 20 17 14 13 11 9 6 3 4 4 2 3 2 359 358 360 357 351 349 346 345 349 352 350 347 346 345 346 350 351 350 349 343 339 338 333 331
34 33 30 28 25 22 19 16 15 13 9 5 5 8 7 5 5 5 2 2 2 356 349 346 345 344 351 356 353 351 352 350 351 354 356 358 356 353 353 349 344 343
33 33 31 29 27 24 21 18 17 15 9 5 8 12 11 8 8 7 6 7 5 358 350 348 348 348 355 1 357 356 356 355 357 359 1 4 5 5 6 4 5 14
34 34 33 32 30 26 23 20 17 15 10 6 11 15 13 11 11 10 9 10 8 1 352 350 351 351 357 3 2 1 360 358 1 4 4 7 10 12 12 15 26 39
36 36 35 33 30 26 24 20 16 15 11 7 12 17 16 14 15 14 13 13 12 4 356 352 353 354 358 4 5 6 3 360 2 7 8 8 13 16 16 20 31 40
38 36 35 33 30 26 24 20 17 15 11 7 11 17 18 16 17 18 16 16 14 6 358 355 355 356 359 3 7 8 6 4 6 9 11 11 13 17 19 22 30 38
39 37 35 32 30 26 23 20 17 15 12 9 9 14 19 19 19 20 20 19 14 5 359 358 358 359 0 3 7 10 9 9 10 11 13 15 16 17 19 23 30 37
40 38 34 33 31 27 23 20 17 15 14 12 10 12 18 22 22 23 24 23 15 7 3 1 360 1 3 4 7 13 12 10 14 16 14 16 20 19 19 24 31 36
39 36 33 33 32 28 24 21 17 15 15 15 13 12 18 23 24 25 27 26 19 12 6 3 1 0 4 5 6 11 11 10 17 22 18 18 23 23 22 25 30 35
37 34 32 32 32 29 25 22 19 16 15 15 15 14 19 24 25 26 27 26 23 16 8 4 2 0 4 5 3 7 10 9 17 24 24 22 25 29 29 29 31 33
37 33 31 30 31 29 26 24 21 18 15 16 16 15 19 25 26 27 29 28 26 21 12 5 3 3 6 7 3 4 9 10 14 25 30 27 25 29 32 33 35 36
38 33 31 30 31 30 28 26 23 19 17 16 16 17 20 25 27 28 30 29 28 23 14 6 5 6 9 11 9 6 8 9 11 23 31 29 24 27 31 34 37 39
39 34 32 31 32 32 30 28 24 21 19 17 17 19 21 25 28 29 29 31 30 25 16 9 8 9 10 13 16 14 10 8 10 17 23 23 23 28 32 35 39 40
44 38 35 34 34 34 31 29 26 23 22 21 20 21 21 25 29 30 30 32 31 28 20 13 11 13 14 15 19 20 16 9 11 14 16 18 22 27 33 37 42 45
50 44 40 37 36 35 32 30 28 26 25 24 23 22 21 26 31 32 31 31 31 28 22 17 16 17 20 22 25 29 25 14 12 16 17 19 21 24 30 35 40 44
56 50 46 42 39 37 34 32 31 30 29 27 25 24 23 27 33 33 31 32 32 29 24 19 17 19 24 28 32 38 36 23 16 19 21 22 23 22 26 34 40 44
62 57 53 48 43 40 36 33 32 33 32 29 27 25 25 29 33 35 34 34 34 32 26 19 18 22 28 31 34 42 43 32 21 24 26 26 26 24 25 32 39 42
67 64 60 55 49 44 39 37 36 34 33 30 28 27 27 29 31 34 36 36 35 33 28 20 19 24 31 34 37 43 43 35 26 28 31 30 29 28 26 28 32 34
71 70 67 61 55 49 45 42 39 35 34 32 30 29 29 29 28 29 32 34 35 34 29 22 21 24 31 36 41 45 43 35 27 30 35 35 33 32 29 28 28 26
76 75 73 67 61 55 51 47 42 37 35 33 32 32 31 30 28 27 28 30 34 35 32 24 22 25 32 36 42 47 43 32 27 32 36 37 36 35 32 31 31 28
80 79 76 71 65 60 56 52 45 40 37 35 35 35 34 33 31 30 30 30 32 34 33 26 23 26 31 33 39 48 43 28 24 31 33 35 37 36 34 33 34 36
83 82 78 74 68 63 60 54 49 45 41 37 36 37 36 36 35 34 33 32 32 32 31 28 24 26 31 32 35 45 43 25 22 30 30 33 35 36 37 34 33 39
84 83 79 75 70 66 62 56 52 48 43 39 38 39 40 40 40 40 37 35 34 33 33 33 25 25 31 33 32 41 43 27 19 28 29 30 33 35 39 37 31 36
86 84 80 76 72 68 64 59 55 51 45 43 44 45 45 45 44 43 41 38 35 33 34 36 30 25 30 34 32 37 43 34 21 24 27 26 29 32 36 39 32 33
90 85 80 78 74 70 67 61 57 53 50 49 49 49 49 47 45 44 43 40 37 35 34 34 33 29 29 34 36 36 41 41 30 24 22 20 25 31 32 36 34 29
Height
844 842 841 840 839 837 836 834 832 831 829 827 825 824 822 820 818 815 812 810 807 805 801 798 795 792 789 786 782 778 775 772 768 764 760 756 752 749 745 742 740 738
845 844 843 841 840 839 837 836 834 832 830 828 827 825 823 821 819 816 814 811 808 805 802 798 795 792 789 787 783 779 775 772 769 765 760 756 752 748 744 741 738 736
846 845 844 843 841 840 838 837 835 833 832 829 828 827 824 822 820 817 815 812 810 806 802 799 796 793 791 789 784 780 777 773 769 765 760 756 752 748 744 740 737 735
847 846 845 844 843 841 839 838 836 834 832 830 829 828 826 823 821 818 816 813 811 808 803 800 797 794 792 790 786 781 777 774 770 766 761 757 753 749 745 740 736 734
848 847 846 845 844 842 840 839 837 835 833 831 830 829 827 824 822 819 817 815 813 809 805 802 798 795 793 791 787 783 779 775 771 768 764 759 755 752 748 744 740 737
850 849 847 846 844 843 841 840 838 836 834 832 831 830 828 826 823 821 819 816 814 811 807 803 800 797 795 793 789 785 781 776 772 770 767 762 758 755 752 748 745 742
851 850 848 847 845 844 842 840 839 837 836 834 832 831 829 827 825 823 821 818 816 813 809 805 802 799 796 794 791 788 784 779 773 772 770 766 762 759 756 753 750 748
852 851 850 848 846 845 843 841 840 838 837 835 833 832 830 828 827 825 822 820 817 814 811 807 804 801 798 796 793 790 787 782 776 774 772 769 767 764 761 758 755 753
853 852 851 849 847 846 844 842 841 839 838 836 834 833 832 830 828 827 824 822 819 816 813 809 806 803 801 798 796 793 790 786 781 777 776 774 771 769 766 763 760 758
854 853 852 850 849 847 845 844 842 840 839 837 836 834 833 832 830 828 826 824 821 818 815 812 808 805 803 801 799 796 794 790 785 782 780 778 776 774 771 769 766 764
855 854 853 851 850 849 847 845 843 842 840 839 837 835 834 833 832 830 828 826 824 821 818 815 811 808 805 803 801 799 797 794 789 786 783 782 781 779 776 774 771 770
856 855 854 853 851 850 848 847 845 843 842 840 839 837 836 835 833 832 830 828 826 824 821 818 814 811 807 805 803 801 799 797 794 790 786 784 784 783 781 778 777 775
857 856 855 854 853 851 850 849 847 845 843 842 841 839 838 837 835 834 832 830 829 827 824 820 817 813 809 807 805 803 802 800 797 794 790 787 786 785 783 782 781 779
858 858 856 856 855 853 852 850 848 847 845 844 842 840 839 839 838 836 834 832 831 829 827 823 819 815 811 808 807 805 804 803 800 797 794 792 790 788 786 785 784 783
859 859 858 857 856 854 853 852 850 849 847 846 844 842 841 841 840 839 836 835 833 832 830 826 822 818 815 812 810 807 806 806 803 800 798 796 794 792 790 788 787 786
861 860 859 858 857 856 855 853 852 851 849 848 846 844 843 842 842 841 838 837 835 834 832 828 824 821 819 816 814 810 809 808 807 804 801 800 797 795 793 792 790 789
862 861 860 859 858 857 856 855 854 852 851 850 848 846 845 844 844 843 841 840 838 836 834 831 828 825 821 819 816 813 811 810 810 807 805 803 800 798 796 794 792 791
863 862 862 861 860 859 858 856 855 854 853 852 850 848 847 846 845 845 843 842 840 839 837 834 831 828 824 821 818 815 813 813 812 810 808 807 804 802 800 798 795 794
864 863 863 862 861 860 859 858 857 856 854 853 852 851 849 848 847 846 845 844 843 841 840 837 834 830 827 824 821 818 815 815 815 814 812 810 809 806 804 802 800 799
865 864 864 864 863 862 861 859 858 857 856 855 854 853 851 850 849 847 847 846 845 844 842 840 836 833 830 827 824 821 818 818 818 817 815 814 812 811 809 806 805 804
865 865 865 864 864 863 862 861 860 859 858 857 856 855 853 852 851 849 848 847 847 846 845 842 839 836 832 829 827 823 821 821 821 819 818 817 815 814 812 810 808 807
866 866 866 865 865 865 864 863 862 860 859 859 858 857 856 854 853 852 850 849 848 847 846 844 842 838 835 832 830 826 824 824 824 822 821 820 818 817 816 813 811 809
867 867 867 866 866 866 865 864 864 863 862 861 860 859 858 856 855 854 853 851 850 848 847 846 844 841 838 835 832 829 827 827 826 825 823 822 821 820 820 817 815 812
868 868 867 868 867 867 867 866 865 865 864 863 862 861 860 859 858 856 855 853 852 850 849 848 847 844 841 838 836 832 830 829 829 828 826 825 824 824 823 822 820 817
869 869 868 869 869 868 868 868 867 866 865 865 864 863 862 861 860 859 857 856 855 853 851 850 849 846 843 841 839 836 833 832 832 830 829 829 828 827 826 825 824 822
869 870 870 870 870 870 869 869 868 868 867 866 866 865 864 864 862 861 860 858 857 856 854 852 851 849 847 844 841 839 837 835 834 833 832 832 831 830 829 828 827 826